HYLAS 1

Last updated on Sun Apr 12 2026 00:02:52 GMT+0000 (Coordinated Universal Time)

1 37237U 10065A 26101.10461515 .00000095 00000+0 00000+0 0 9999 2 37237 5.4729 73.8233 0001797 288.7847 248.1877 1.00271510 6218
UTC large
Height (km)
Speed (km/s)
/
Latitude / Longitude
Inclination (degrees)
Orbital Period (minutes)
Azimuth
Elevation
Range (km)
Doppler Factor

Next 0 passes for location: London (51.5072 / 0.1276)

Sorry there are no passes over London.